Date,TemperatureHighF,TemperatureAvgF,TemperatureLowF,DewpointHighF,DewpointAvgF,DewpointLowF,HumidityHigh,HumidityAvg,HumidityLow,PressureMaxIn,PressureMinIn,WindSpeedMaxMPH,WindSpeedAvgMPH,GustSpeedMaxMPH,PrecipitationSumIn
2013-3-1,75.7,55.1,35.9,21.6,12.3,0.0,32,19,12,30.33,29.82,9,3,13,0.00
2013-3-2,80.4,59.7,42.0,28.6,19.9,13.5,39,23,12,30.25,29.67,7,2,10,0.00
2013-3-3,64.0,54.1,42.8,30.5,22.2,15.9,45,30,19,29.97,29.55,9,3,14,0.00
2013-3-4,72.3,57.2,45.6,29.2,23.0,18.8,40,27,16,29.91,29.45,11,3,15,0.00
2013-3-5,70.5,54.8,40.8,29.1,21.5,14.4,48,29,14,30.00,29.62,11,2,13,0.00
2013-3-6,73.4,57.0,40.8,33.5,22.4,14.3,52,29,13,29.90,29.44,13,4,17,0.00
2013-3-7,71.7,56.0,40.2,31.7,21.6,13.8,49,29,14,29.83,29.45,13,4,26,0.00
2013-3-8,51.4,41.7,34.5,40.3,32.6,21.7,92,73,33,29.74,29.44,16,3,22,1.11
2013-3-9,38.1,36.4,34.5,35.4,33.1,31.3,92,88,85,29.95,29.71,4,1,6,0.54
2013-3-10,66.3,47.4,31.8,40.9,28.7,18.5,95,56,23,30.12,29.71,9,2,12,0.13
2013-3-11,72.5,52.7,36.1,30.5,23.5,18.5,51,35,16,30.15,29.61,7,2,10,0.00
2013-3-12,79.5,58.8,39.3,32.4,23.5,16.6,51,29,12,30.05,29.53,10,3,15,0.00
2013-3-13,83.3,62.8,44.0,32.5,23.3,14.6,43,25,11,30.10,29.62,10,3,13,0.00
2013-3-14,89.6,67.6,50.0,31.9,23.0,19.5,35,20,10,30.05,29.52,13,3,23,0.00
2013-3-15,86.7,66.4,50.1,34.1,23.2,16.1,36,21,11,29.91,29.45,9,3,13,0.00
2013-3-16,82.4,62.8,50.7,35.6,27.3,18.4,41,28,12,29.72,29.23,12,3,22,0.00
2013-3-17,81.8,61.5,46.2,35.1,22.7,5.8,49,27,10,29.70,29.23,20,4,29,0.00
2013-3-18,79.5,61.5,44.6,25.8,16.8,4.1,33,18,12,29.79,29.39,11,3,17,0.00
2013-3-19,79.7,62.7,51.2,33.5,24.0,15.0,38,25,12,29.85,29.47,10,3,16,0.00
2013-3-20,75.2,60.1,48.9,30.7,22.9,17.3,35,24,16,29.88,29.48,13,4,21,0.00
2013-3-21,79.7,63.3,48.5,36.4,25.6,14.4,48,27,11,29.61,29.20,14,4,23,0.00
2013-3-22,76.6,59.1,44.7,30.4,16.6,4.1,29,20,12,29.58,29.19,18,4,27,0.00
2013-3-23,67.6,53.6,40.4,13.7,7.3,0.3,18,15,12,29.82,29.48,16,5,24,0.00
2013-3-24,73.9,55.3,37.7,16.1,7.9,0.0,19,15,11,29.93,29.42,15,4,19,0.00
2013-3-25,60.4,46.8,42.8,11.0,4.2,2.2,18,17,14,29.84,29.70,7,3,11,0.00
2013-3-30,77.1,64.1,54.5,27.4,21.5,16.0,31,20,13,29.76,29.53,0,0,0,0.00
2013-3-31,84.5,63.2,48.2,32.1,23.1,14.3,40,24,11,29.86,29.39,0,0,0,0.00